User: anonymous   Login
Location: ???????????
(38.2661°N, 23.2350°E)
Time: 04:10:39
(UTC+00:00)
Language:

Cosmos 2322 Rocket - Orbit

View from above orbital plane
View from above orbital plane
View from above satellite
View from above satellite

Ground track
Ground track

The orbit data is extracted from the following two-line orbital elements,

1 23705U 95058B   24060.82933603  .00000108  00000-0  79869-4 0  9992
2 23705  71.0211 291.2686 0012294 175.5099 184.6136 14.15287572463609
Epoch (UTC): 29 February 2024 19:54:14
Eccentricity: 0.0012294
inclination: 71.0211°
perigee height: 832 km
apogee height: 850 km
right ascension of ascending node: 291.2686°
argument of perigee: 175.5099°
revolutions per day: 14.15287572
mean anomaly at epoch: 184.6136°
orbit number at epoch: 46360

The dashed part of the orbit path shows where the satellite is in the earth's shadow,  

DLR